• In Deutschland
  • Länderverzeichnis
  • Für 7 Tage
  • Wassertemperatur
  • Satellitenkarten
  • Wetterkarte
  • Widgets
  • user-avatar
    Anmelden

    Stündliche Wetter Wiesloch

    Heute, 18 Oktober, Mittwoch

    Zeit Temperatur Niederschläge Wind Luftdruck Luftfeuchtigkeit
    00:00 +14°C° 0 mm 1 m/S 747 mmHg 67%
    01:00 +14°C° 0 mm 1 m/S 747 mmHg 65%
    02:00 +14°C° 0 mm 1 m/S 747 mmHg 66%
    03:00 +14°C° 0 mm 1 m/S 747 mmHg 67%
    04:00 +14°C° 0 mm 1 m/S 746 mmHg 68%
    05:00 +13°C° 0 mm 1 m/S 746 mmHg 68%
    06:00 +13°C° 0 mm 1 m/S 746 mmHg 68%
    07:00 +11°C° 0 mm 1 m/S 746 mmHg 67%
    08:00 +13°C° 0 mm 1 m/S 746 mmHg 62%
    09:00 +15°C° 0 mm 1 m/S 746 mmHg 58%
    10:00 +18°C° 0 mm 1 m/S 746 mmHg 53%
    11:00 +18°C° 0 mm 2 m/S 746 mmHg 50%
    12:00 +20°C° 0 mm 2 m/S 746 mmHg 48%
    13:00 +21°C° 0 mm 2 m/S 746 mmHg 45%
    14:00 +21°C° 0 mm 2 m/S 745 mmHg 48%
    15:00 +22°C° 0 mm 1 m/S 745 mmHg 51%
    16:00 +22°C° 0 mm 1 m/S 745 mmHg 53%
    17:00 +20°C° 0 mm 1 m/S 745 mmHg 57%
    18:00 +18°C° 0 mm 1 m/S 745 mmHg 60%
    19:00 +15°C° 0 mm 1 m/S 745 mmHg 64%
    20:00 +15°C° 0 mm 1 m/S 745 mmHg 65%
    21:00 +14°C° 0 mm 1 m/S 745 mmHg 66%
    22:00 +14°C° 0 mm 1 m/S 745 mmHg 67%
    23:00 +14°C° 0 mm 1 m/S 745 mmHg 68%

    Morgen, 19 Oktober, Donnerstag

    Zeit Temperatur Niederschläge Wind Luftdruck Luftfeuchtigkeit
    00:00 +13°C° 0 mm 1 m/S 745 mmHg 68%
    01:00 +13°C° 0 mm 1 m/S 745 mmHg 69%
    02:00 +13°C° 0 mm 1 m/S 745 mmHg 69%
    03:00 +13°C° 0 mm 1 m/S 745 mmHg 68%
    04:00 +13°C° 0 mm 1 m/S 745 mmHg 68%
    05:00 +13°C° 0 mm 1 m/S 745 mmHg 67%
    06:00 +13°C° 0 mm 1 m/S 745 mmHg 66%
    07:00 +13°C° 0 mm 1 m/S 745 mmHg 65%
    08:00 +14°C° 0 mm 1 m/S 745 mmHg 61%
    09:00 +16°C° 0 mm 1 m/S 745 mmHg 57%
    10:00 +19°C° 0 mm 1 m/S 745 mmHg 52%
    11:00 +20°C° 0 mm 1 m/S 745 mmHg 49%
    12:00 +21°C° 0 mm 1 m/S 745 mmHg 46%
    13:00 +23°C° 0 mm 1 m/S 745 mmHg 43%
    14:00 +23°C° 0 mm 1 m/S 744 mmHg 46%
    15:00 +22°C° 0 mm 1 m/S 744 mmHg 49%
    16:00 +22°C° 0 mm 1 m/S 744 mmHg 51%
    17:00 +20°C° 0 mm 1 m/S 744 mmHg 56%
    18:00 +19°C° 0 mm 1 m/S 744 mmHg 60%
    19:00 +16°C° 0 mm 1 m/S 744 mmHg 64%
    20:00 +16°C° 0 mm 1 m/S 744 mmHg 66%
    21:00 +15°C° 0 mm 1 m/S 744 mmHg 68%
    22:00 +15°C° 0 mm 1 m/S 745 mmHg 70%
    23:00 +14°C° 0 mm 1 m/S 745 mmHg 71%

    übermorgen, 20 Oktober, Freitag

    Zeit Temperatur Niederschläge Wind Luftdruck Luftfeuchtigkeit
    00:00 +14°C° 0 mm 1 m/S 745 mmHg 73%
    01:00 +13°C° 0 mm 1 m/S 745 mmHg 74%
    02:00 +13°C° 0 mm 1 m/S 745 mmHg 75%
    03:00 +13°C° 0 mm 1 m/S 745 mmHg 76%
    04:00 +13°C° 0 mm 1 m/S 745 mmHg 76%
    05:00 +12°C° 0 mm 1 m/S 745 mmHg 76%
    06:00 +12°C° 0 mm 1 m/S 745 mmHg 76%
    07:00 +12°C° 0 mm 1 m/S 745 mmHg 76%
    08:00 +14°C° 0 mm 1 m/S 745 mmHg 70%
    09:00 +15°C° 0 mm 1 m/S 746 mmHg 65%
    10:00 +18°C° 0 mm 1 m/S 746 mmHg 60%
    11:00 +18°C° 0 mm 2 m/S 746 mmHg 57%
    12:00 +19°C° 0 mm 3 m/S 746 mmHg 54%
    13:00 +20°C° 0 mm 3 m/S 746 mmHg 52%
    14:00 +19°C° 0,1 mm 3 m/S 746 mmHg 57%
    15:00 +19°C° 0,1 mm 2 m/S 746 mmHg 63%
    16:00 +18°C° 0,1 mm 2 m/S 746 mmHg 69%
    17:00 +17°C° 0,2 mm 2 m/S 746 mmHg 73%
    18:00 +16°C° 0,2 mm 1 m/S 747 mmHg 77%
    19:00 +15°C° 0,2 mm 1 m/S 747 mmHg 82%
    20:00 +15°C° 0 mm 1 m/S 747 mmHg 83%
    21:00 +14°C° 0 mm 1 m/S 747 mmHg 84%
    22:00 +14°C° 0 mm 2 m/S 748 mmHg 84%
    23:00 +14°C° 0 mm 1 m/S 747 mmHg 85%

    21 Oktober, Samstag

    Zeit Temperatur Niederschläge Wind Luftdruck Luftfeuchtigkeit
    00:00 +13°C° 0 mm 1 m/S 747 mmHg 87%
    01:00 +13°C° 0 mm 1 m/S 747 mmHg 88%
    02:00 +13°C° 0 mm 1 m/S 747 mmHg 87%
    03:00 +14°C° 0 mm 1 m/S 747 mmHg 86%
    04:00 +14°C° 0 mm 1 m/S 747 mmHg 86%
    05:00 +14°C° 0 mm 2 m/S 747 mmHg 85%
    06:00 +14°C° 0 mm 2 m/S 747 mmHg 85%
    07:00 +14°C° 0 mm 2 m/S 746 mmHg 84%
    08:00 +15°C° 0 mm 2 m/S 746 mmHg 81%
    09:00 +16°C° 0 mm 3 m/S 746 mmHg 77%
    10:00 +17°C° 0 mm 3 m/S 746 mmHg 73%
    11:00 +18°C° 0 mm 4 m/S 746 mmHg 69%
    12:00 +19°C° 0 mm 4 m/S 746 mmHg 64%
    13:00 +20°C° 0 mm 4 m/S 746 mmHg 60%
    14:00 +19°C° 0,3 mm 4 m/S 746 mmHg 67%
    15:00 +18°C° 0,3 mm 4 m/S 746 mmHg 73%
    16:00 +15°C° 0,3 mm 4 m/S 746 mmHg 80%
    17:00 +15°C° 0,8 mm 4 m/S 746 mmHg 83%
    18:00 +14°C° 0,8 mm 3 m/S 746 mmHg 86%
    19:00 +13°C° 0,8 mm 3 m/S 747 mmHg 89%
    20:00 +13°C° 0,5 mm 3 m/S 747 mmHg 88%
    21:00 +13°C° 0,5 mm 3 m/S 747 mmHg 87%
    22:00 +12°C° 0,5 mm 4 m/S 748 mmHg 86%
    23:00 +12°C° 0,1 mm 4 m/S 748 mmHg 85%

    22 Oktober, Sonntag

    Zeit Temperatur Niederschläge Wind Luftdruck Luftfeuchtigkeit
    00:00 +11°C° 0,1 mm 4 m/S 748 mmHg 84%
    01:00 +11°C° 0,1 mm 4 m/S 748 mmHg 83%
    02:00 +10°C° 0 mm 4 m/S 748 mmHg 84%
    03:00 +10°C° 0 mm 4 m/S 748 mmHg 85%
    04:00 +8°C° 0 mm 4 m/S 748 mmHg 85%
    05:00 +8°C° 0 mm 4 m/S 748 mmHg 85%
    06:00 +8°C° 0 mm 4 m/S 748 mmHg 85%
    07:00 +8°C° 0 mm 4 m/S 748 mmHg 85%
    08:00 +8°C° 0 mm 4 m/S 748 mmHg 82%
    09:00 +8°C° 0 mm 5 m/S 748 mmHg 79%
    10:00 +9°C° 0 mm 5 m/S 748 mmHg 76%
    11:00 +9°C° 0,1 mm 5 m/S 748 mmHg 72%
    12:00 +11°C° 0,1 mm 4 m/S 748 mmHg 69%
    13:00 +11°C° 0,1 mm 4 m/S 748 mmHg 66%
    14:00 +11°C° 0,2 mm 4 m/S 748 mmHg 67%
    15:00 +11°C° 0,2 mm 4 m/S 748 mmHg 67%
    16:00 +11°C° 0,2 mm 4 m/S 748 mmHg 67%
    17:00 +10°C° 0 mm 4 m/S 748 mmHg 71%
    18:00 +9°C° 0 mm 3 m/S 749 mmHg 75%
    19:00 +9°C° 0 mm 3 m/S 749 mmHg 79%
    20:00 +9°C° 0 mm 3 m/S 750 mmHg 80%
    21:00 +8°C° 0 mm 4 m/S 750 mmHg 81%
    22:00 +8°C° 0 mm 4 m/S 750 mmHg 82%
    23:00 +7°C° 0,1 mm 4 m/S 750 mmHg 83%

    23 Oktober, Montag

    Zeit Temperatur Niederschläge Wind Luftdruck Luftfeuchtigkeit
    00:00 +7°C° 0,1 mm 4 m/S 750 mmHg 84%
    01:00 +7°C° 0,1 mm 4 m/S 750 mmHg 86%
    02:00 +7°C° 0,3 mm 4 m/S 749 mmHg 86%
    03:00 +7°C° 0,3 mm 4 m/S 749 mmHg 87%
    04:00 +8°C° 0,3 mm 4 m/S 749 mmHg 87%
    05:00 +8°C° 0,7 mm 4 m/S 750 mmHg 88%
    06:00 +8°C° 0,7 mm 4 m/S 750 mmHg 89%
    07:00 +8°C° 0,7 mm 4 m/S 750 mmHg 89%
    08:00 +8°C° 0,3 mm 4 m/S 750 mmHg 88%
    09:00 +10°C° 0,3 mm 4 m/S 750 mmHg 86%
    10:00 +10°C° 0,3 mm 4 m/S 751 mmHg 84%
    11:00 +11°C° 0,1 mm 4 m/S 751 mmHg 82%
    12:00 +11°C° 0,1 mm 4 m/S 751 mmHg 80%
    13:00 +12°C° 0,1 mm 4 m/S 751 mmHg 77%
    14:00 +11°C° 0,1 mm 4 m/S 751 mmHg 79%
    15:00 +11°C° 0,1 mm 4 m/S 751 mmHg 82%
    16:00 +11°C° 0,1 mm 4 m/S 751 mmHg 84%
    17:00 +11°C° 0 mm 3 m/S 751 mmHg 86%
    18:00 +10°C° 0 mm 3 m/S 751 mmHg 87%
    19:00 +10°C° 0 mm 3 m/S 751 mmHg 89%
    20:00 +10°C° 0,1 mm 2 m/S 751 mmHg 90%
    21:00 +10°C° 0,1 mm 2 m/S 752 mmHg 91%
    22:00 +10°C° 0,1 mm 2 m/S 752 mmHg 93%
    23:00 +10°C° 0 mm 2 m/S 752 mmHg 93%
    Mehr zeigen